Miscellaneous Local Product
Issued by NWS North Platte, NE

Home | Current Version | Previous Version | Text Only | Print | Product List | Glossary On
Versions: 1 2 3 4 5 6 7 8 9 10 11 12 13 14 15 16 17 18 19 20 21 22 23 24 25 26 27 28 29 30 31 32 33 34 35 36 37 38 39 40 41 42 43 44 45 46 47 48 49 50
000
AXUS43 KLBF 312210
MISLBF


WESTERN AND NORTH CENTRAL NEBRASKA HOURLY WEATHER ROUNDUP
NATIONAL WEATHER SERVICE NORTH PLATTE NE
400 PM CST SAT JAN 31 2015

***STATIONS NOT REPORTING VARIABLES SUCH AS SKY/WEATHER OR
PRESSURE ARE PROVIDED BY THE NEBRASKA DEPARTMENT OF
ROADS...RAWS...AND APRS NETWORKS...AND ARE NOT UNDER
NATIONAL WEATHER SERVICE QUALITY CONTROL***

...OBSERVATIONS IN AND NEAR THE EASTERN PANHANDLE OF NEBRASKA...

CITY           SKY/WX    TMP DP  RH WIND       PRES   REMARKS
PINE RIDGE     LGT SNOW  26  23  88 NE8       29.93R FOG     WCI  18
CHADRON        CLOUDY    28  25  88 N18       29.93R FOG     WCI  15
ALLIANCE       SNOW      30  28  92 NE8       29.85R VSB 1/4 WCI  22
SIDNEY         LGT SNOW  32  29  88 N10       29.82S FOG     WCI  24
WHITECLAY        N/A     25  22  89 NE9         N/A  WCI  15
CRESCENT LAKE    N/A     31  30  94 NE9         N/A  WCI  23
LISCO            N/A     33  30  91 NW13        N/A  WCI  23
LEWELLEN         N/A     30  28  93 CALM        N/A
$$

...OBSERVATIONS IN NORTH CENTRAL NEBRASKA...

CITY           SKY/WX    TMP DP  RH WIND       PRES   REMARKS
VALENTINE      FRZ RAIN  24  23  96 NE14      29.95S FOG     WCI  12
THEDFORD       LGT SNOW  28  27  97 NE12      29.89F VSB 1   WCI  18
AINSWORTH      CLOUDY    25  25  98 NE14      29.94S FOG     WCI  13
O`NEILL        LGT SNOW  29  28  96 NE16      29.95F WCI  18
ORD            LGT SNOW  33  31  92 E6        29.88F FOG     WCI  28
BROKEN BOW     LGT SNOW  34  32  92 E6        29.86S FOG     WCI  29
BROWNLEE         N/A     24  24  96 N10         N/A  WCI  14
VALENTINE NWR    N/A     24  23  96 NE10        N/A  WCI  14
SPRINGVIEW       N/A     24  22  91 NE7G16      N/A  WCI  16
HALSEY           N/A     27  27  99 N6          N/A  WCI  21
BREWSTER         N/A     30  29  99 NE9         N/A  WCI  21
ROSE             N/A     30  30 100 N8          N/A  WCI  22
NEWPORT          N/A     30  30 100 NE16        N/A  WCI  19
SARGENT          N/A     33  31  93 CALM        N/A
COMSTOCK         N/A     36  36  99 E5          N/A  WCI  32
CHAMBERS         N/A     31  28  89 NE5G12      N/A  WCI  26
EWING            N/A     32  32 100 NE5         N/A  WCI  27
$$

...OBSERVATIONS IN SOUTHWEST NEBRASKA AND FAR NORTHEAST COLORADO...

CITY           SKY/WX    TMP DP  RH WIND       PRES   REMARKS
WRAY           LGT RAIN  35  35 100 N6        29.81S WCI  30
IMPERIAL       LGT SNOW  34  32  92 NE7       29.81F FOG     WCI  28
OGALLALA       DRIZZLE   34  34  98 NE6       29.83F WCI  29
NORTH PLATTE   LGT SNOW  33  32  96 E3        29.84S FOG
MCCOOK         FOG       36  34  92 NE9       29.82F VSB 1   WCI  29
LEXINGTON      LGT SNOW  33  32  96 E6        29.85F WCI  28
BRADY            N/A     32  30  94 CALM        N/A
GOTHENBURG       N/A     33  30  90 NE3         N/A
CALLAWAY         N/A     32  31  96 E5          N/A  WCI  27
$$

...NORTH PLATTE AREA...

CITY           SKY/WX    TMP DP  RH WIND       PRES   REMARKS
AIRPORT        LGT SNOW  33  32  96 E3        29.84S FOG
DOWNTOWN         N/A     33  31  94 CALM        N/A
$$

...SOME WEATHER OBSERVATIONS FROM AROUND THE REGION...

CITY           SKY/WX    TMP DP  RH WIND       PRES   REMARKS
DENVER         LGT SNOW  35  30  82 N3        29.80F
LARAMIE        CLOUDY    36  26  67 CALM      29.79S
CHEYENNE       CLOUDY    39  27  62 E6        29.77S WCI  35
SCOTTSBLUFF    LGT SNOW  32  30  92 N7        29.85S VSB 1   WCI  26
RAPID CITY     FOG       23  22  96 E15       29.97S VSB 1/4 WCI  10
PIERRE         CLOUDY    18  15  88 NE18      30.10S WCI   2
WINNER         FRZ RAIN  24  21  88 NE17      30.03R VSB 1/2 WCI  11
SIOUX FALLS    LGT SNOW  26  23  88 NE21      30.06S FOG     WCI  12
OMAHA          LGT SNOW  35  33  92 SE13      30.00F FOG     WCI  26
GRAND ISLAND   LGT SNOW  32  32 100 SE6       29.90F VSB 3/4 WCI  26
KANSAS CITY    LGT RAIN  37  35  92 S13       30.04F FOG     WCI  29
WICHITA        CLOUDY    40  38  93 SE16      29.92F FOG     WCI  31
HAYS           CLOUDY    39  32  75 S13       29.84F WCI  32
LIBERAL        CLOUDY    43  36  75 SW15      29.83F
GOODLAND       CLOUDY    36  34  92 N12       29.79S WCI  28
$$



USA.gov is the U.S. government's official web portal to all federal, state and local government web resources and services.